Flag for U.S.A. Weather past 2 weeks in Portland, Oregon, U.S.A.

Now
43 °F

Partly sunny.


Feels Like: 43 °F
Forecast: 43 / 56 °F
Wind: No wind

Location: Portland International Airport

Current Time: Jan 29, 2015 at 11:09:10 AM

Latest Report: Jan 29, 2015 at 9:53 AM


Visibility: 7 mi

Pressure: 30.33 "Hg

Humidity: 100%

Dew point: 43 °F

Location of PortlandLocation

Historic Weather in Portland — Graph

°F

Portland temperature yesterday

Maximum temperature yesterday: 54 °F (at 2:53 PM)
Minimum temperature yesterday: 45 °F (at 11:53 PM)
Average temperature yesterday: 49 °F

Past Weeks' High & Low Weather Summary

 TemperatureHumidityPressure
High60 °F (Jan 24, 12:53 PM)100% (Jan 15, 10:53 PM)30.48 "Hg (Jan 15, 10:53 PM)
Low31 °F (Jan 15, 12:53 AM)54% (Jan 14, 11:53 AM)29.75 "Hg (Jan 17, 8:53 PM)
Average45 °F89%30.23 "Hg
* Reported Jan 14 9:53 AM — Jan 29 9:53 AM, Portland, Weather by CustomWeather, © 2014

Note: Actual official high and low records may vary slightly from our data, if they occured in-between our weather recording intervals... More about our weather records

Advertising

Portland weather history for previous 24 hours

 ConditionsComfort  
Time TempWeatherWind HumidityBarometerVisibility
9:53 AM
Jan 29
43 °FPartly sunny.No wind100%30.33 "Hg7 mi
8:53 AM43 °FFog.3 mph100%30.33 "Hg0 mi
8:03 AM43 °FFog.No wind100%30.33 "Hg0 mi
7:53 AM43 °FFog.No wind100%30.33 "Hg0 mi
6:53 AM42 °FPassing clouds.5 mph92%30.33 "Hg10 mi
5:53 AM43 °FLow clouds.No wind93%30.32 "Hg10 mi
4:53 AM44 °FMostly cloudy.No wind85%30.32 "Hg10 mi
3:53 AM45 °FPassing clouds.No wind82%30.32 "Hg10 mi
2:53 AM44 °FPassing clouds.No wind89%30.33 "Hg10 mi
1:53 AM45 °FPassing clouds.No wind90%30.34 "Hg10 mi
11:53 PM
Jan 28
45 °FMostly cloudy.3 mph93%30.33 "Hg10 mi
10:53 PM47 °FMostly cloudy.No wind86%30.33 "Hg10 mi
9:53 PM48 °FMostly cloudy.5 mph83%30.32 "Hg10 mi
8:53 PM49 °FOvercast.5 mph86%30.32 "Hg10 mi
7:53 PM49 °FOvercast.3 mph97%30.31 "Hg7 mi
6:53 PM50 °FPassing clouds.5 mph96%30.31 "Hg10 mi
5:53 PM51 °FPartly cloudy.No wind92%30.31 "Hg10 mi
4:53 PM54 °FPartly sunny.5 mph90%30.30 "Hg10 mi
3:53 PM54 °FBroken clouds.3 mph90%30.30 "Hg10 mi
2:53 PM54 °FBroken clouds.No wind90%30.31 "Hg10 mi
1:53 PM53 °FPartly sunny.6 mph89%30.32 "Hg7 mi
12:53 PM52 °FFog.6 mph93%30.34 "Hg2 mi
11:53 AM50 °FFog.3 mph100%30.35 "Hg0 mi
11:01 AM50 °FFog.No wind100%30.37 "Hg0 mi
Weather by CustomWeather, © 2014

See weather overviewHow to use our weather pages